Погода Ивано-Франковск

Поиск расширенной информации на нашем сайте:

Полезная информация:

Новости сайта



02.01.2020
Опубликован Долгосрочный прогноз погоды по городам России и ближнего зарубежья на январь 2020 года.
Карты: Прогноз на январь и февраль 2020 года, Сравнение прогнозируемой аномалии приземной температуры воздуха на январь 2020 года по разным моделям.




Погода Ивано-Франковск - сегодня

Время (UTC), дата Ветер
(°,м/с) 
Видим.   Явления Облачность Т
(°С)
Тd
(°С)
f(%) Тe
(°С)
Pmin
(гПа)
dP
(гПа)
Po
(мм)
O2
(г/м3)
Тmin Tmax R s Состояние
почвы
00 16.01.22 290 (З) 30000 м    8/8 1200 м 
[Sc]
+0.1 -5 69 -2  1026.9  0.3  744  300           
03 16.01.22 290 (З) 30000 м    6/6 1200 м 
[Sc]
-1 -6.3 67 1026.8  -0.3  744  301           
06 16.01.22 230 (ЮЗ) 40000 м    4/0 средняя 
[Ac trans]
-4.2 -7.6 77 -6  1026.8  -0.4  743  305  -4.3      мокрый или
старый снег
10-40% 
09 16.01.22 тихо ()   30000 м    ясно 
+1.1 -6.7 56 +1  1025.8  -0.3  743  299           
12 16.01.22 130 (ЮВ) 50000 м    4/0 верхняя 
[Ci fib]
+4.3 -8.5 39 +5  1022.2  -3.1  741  295           
15 16.01.22 тихо ()   50000 м    8/0 верхняя 
[Ci fib]
+1.8 -7.5 50 +2  1020.6  -1.8  739  297           
18 16.01.22 тихо ()   10 км    8/0 средняя, верхняя 
[Ac trans|Ci fib]
-3.4 -6.5 79 -3  1019.8  -1.4  738  302    +5.6       
21 16.01.22 тихо ()   10 км    8/0 средняя, верхняя 
[Ac trans|Ci fib]
-3.5 -5.6 85 -4  1018.3  -1.5  737  302           
00 17.01.22 240 (ЮЗ) 9000 м  дымка  8/0 средняя 
[Ac trans]
-3 -5 86 -3  1017.6  -0.6  737  301           
03 17.01.22 230 (ЮЗ) 50000 м    8/8 1080 м 
[Sc]
+1.1 -4.8 65 1015.2  -1.8  735  296           
06 17.01.22 260 (З) 50000 м    9/9 1080 м 
[Sc]
+2.8 -3.3 64 -1  1013.4  -1.5  734  293  -4.1      мокрый или
старый снег
10-40% 
09 17.01.22 250 (З) 10  50000 м    8/8 1380 м 
[Sc]
+4.3 -4.1 54 1009.8  -3.3  732  291           
12 17.01.22 250 (З) 12-18{18}  50000 м    9/9 1200 м 
[Sc]
+5.2 -4.3 50 +1  1005.3  -4.3  729  289           
15 17.01.22 270 (З) 14  1300 м  ливневой дождь со снегом  10/10 270 м кучево-дожд. 
[Cb cap]
+3.4 +1.6 88 -2  1005  -0.4  728  290           
18 17.01.22 280 (З) 8{21}  2800 м  слаб. ливневой снег  9/9 600 м кучево-дожд. 
[Cb cap]
-0.5 -3.8 78 -5  1011.1  5.3  732  296    +5.6  0.9     
21 17.01.22 300 (СЗ) 10 км  слаб. ливневой снег  10/10 900 м кучево-дожд. 
[Cb cap]
+0.1 -4.9 69 -4  1013.4  2.3  734  296           
00 18.01.22 300 (СЗ) 10{20}  50000 м  {ливн. осадки}  9/9 1200 м 
[Sc]
+0 -5.3 67 -5  1017  3.5  737  297      0.2     
03 18.01.22 290 (З) 10  50000 м    9/9 1000 м 
[Sc]
-0.7 -5.9 68 -6  1020.6  3.4  739  299           
06 18.01.22 290 (З) 9{20}  20000 м  слаб. ливневой снег  10/10 900 м кучево-дожд. 
[Cb cap]
-0.7 -5.5 70 -5  1023  2.3  741  300  -1.3    0.2  равномерный
сухой снег
100% 
09 18.01.22 280 (З) 20000 м  слаб. ливневой снег  10/10 540 м кучево-дожд. 
[Cb cap]
-0.6 -5 72 -5  1024.5  1.5  742  300           
12 18.01.22 290 (З) 10 км  слаб. ливневой снег  10/10 480 м кучево-дожд. 
[Cb cap]
+0.4 -4 72 -4  1025.4  743  299      0.2     
15 18.01.22 300 (СЗ) 50000 м  {ливн. осадки}  8/8 700 м кучево-дожд. 
[Cb cap]
-0.2 -4.9 71 -4  1028.2  2.6  745  301           
18 18.01.22 300 (СЗ) 20000 м  {ливн. осадки}  8/8 800 м 
[Sc]
-0.6 -5.1 72 -5  1030.6  2.3  746  302    +1.1  0.2     
21 18.01.22 290 (З) 10 км    3/0 средняя 
[Ac trans]
-1.6 -4.6 80 -5  1033  2.1  748  304           
00 19.01.22 290 (З) 10 км    6/0 средняя 
[Ac trans]
-1.9 -4.3 84 -5  1032.8  -0.2  748  304           
Время (UTC), дата Ветер
(°,м/с) 
Видим.   Явления Облачность Т
(°С)
Тd
(°С)
f(%) Тe
(°С)
Pmin
(гПа)
dP
(гПа)
Po
(мм)
O2
(г/м3)
Тmin Tmax R s Состояние
почвы

Для получения пояснительной информации подведите курсор к названию столбца.

ПОГОДА Ивано-Франковск - архив

Всё, что Вы хотите узнать о погоде Ивано-Франковск - удобно и подробно!

Выберите нужную дату (начиная с 1 января 2019* года) и нажмите кнопку "Найти".
Будут отображены архивные сводки погоды по пункту Ивано-Франковск, начиная с указанной даты.


Отображать данные в формате CSV (для использования в таблицах Excel)


Внимание! Наш архив погоды предназначен исключительно для личного некоммерческого использования в познавательных целях. Если Вам необходимы официальные справки о состоянии погоды (для производственных, юридических, коммерческих и т.п. целей), обращайтесь в органы Росгидромета.

*Примечание: данная дата относится к архиву по метеостанциям СССР (Россия, СНГ, Балтия).
Архив по метеостанциям Зарубежной Европы и Азии (кроме Китая) хранится 10 дней, по другим регионам земного шара (Китай, Африка, Америка, Австралия, Океания) - 1 день.

Ивано-Франковск - район местоположения метеостанции


Название, широта, долгота, высота метеостанции:
Ивано-Франковск 49°ш. 24.4°д. 280 м над ур. моря [Украина]

Дополнительная информация

В oтличие oт бoльшинства пoгoдных сайтoв мы публикуем пoдрoбную метеoинфoрмацию в детальнoм прoфессиoнальнoм фoрмате.

Характеристики температуры и влажнoсти вoздуха измеряются на высoте 2 м в тени вдали oт зданий и деревьев.
Скoрoсть ветра измеряется на высoте 10 м (на урoвне рoста челoвека скoрoсть ветра ниже в 1.5-2 раза). Если метеoстанция нахoдится в гoрoде или в лесу, тo скoрoсть ветра занижена на 2-4 м/с пo сравнению с oткрытым местoм. Скoрoсть ветра над акватoриями крупных рек и oзёр, а также на вершинах хoлмoв на 2-5 м/с выше, чем в oбычных услoвиях.
Атмoсфернoе давление в разных тoчках местнoсти мoжет значительнo oтличаться oт давления на метеoстанции, в зависимoсти oт услoвий рельефа (при пoдъёме на 10 м давление пoнижается примернo на 1 мм рт.ст.).